When you browse on this site, cookies collect data to enhance your experience and personalize the content and advertising you see.
Visit our Privacy Policy to learn more. By continuing to use the site, you agree to this use of cookies and data.
  • In Portugal
  • List of Countries
  • For 7 days
  • Water Temperature
  • Satellite Maps
  • Weather Map
  • Weather Widgets
  • user-avatar
    Login

    Hourly Weather Jaú

    Today, 24 May, Friday

    Time Temperature Precipitation Wind Pressure Humidity
    00:00 +33°C° 0 mm 1 mps 755 mmHg 33%
    01:00 +33°C° 0 mm 1 mps 755 mmHg 31%
    02:00 +34°C° 0 mm 2 mps 754 mmHg 30%
    03:00 +34°C° 0 mm 3 mps 754 mmHg 29%
    04:00 +34°C° 0 mm 3 mps 754 mmHg 28%
    05:00 +35°C° 0 mm 3 mps 755 mmHg 28%
    06:00 +35°C° 0 mm 4 mps 755 mmHg 27%
    07:00 +36°C° 0 mm 4 mps 755 mmHg 24%
    08:00 +38°C° 0 mm 4 mps 755 mmHg 21%
    09:00 +40°C° 0 mm 4 mps 756 mmHg 18%
    10:00 +41°C° 0 mm 4 mps 756 mmHg 18%
    11:00 +41°C° 0 mm 4 mps 755 mmHg 18%
    12:00 +42°C° 0 mm 4 mps 755 mmHg 18%
    13:00 +41°C° 0 mm 4 mps 755 mmHg 19%
    14:00 +41°C° 0 mm 5 mps 755 mmHg 21%
    15:00 +41°C° 0 mm 5 mps 755 mmHg 22%
    16:00 +39°C° 0 mm 5 mps 755 mmHg 26%
    17:00 +37°C° 0 mm 4 mps 755 mmHg 29%
    18:00 +36°C° 0 mm 4 mps 755 mmHg 32%
    19:00 +36°C° 0 mm 4 mps 755 mmHg 34%
    20:00 +35°C° 0 mm 3 mps 755 mmHg 35%
    21:00 +35°C° 0 mm 3 mps 755 mmHg 37%
    22:00 +34°C° 0 mm 2 mps 755 mmHg 36%
    23:00 +34°C° 0 mm 2 mps 755 mmHg 35%

    Tomorrow, 25 May, Saturday

    Time Temperature Precipitation Wind Pressure Humidity
    00:00 +34°C° 0 mm 2 mps 755 mmHg 35%
    01:00 +34°C° 0 mm 2 mps 755 mmHg 36%
    02:00 +32°C° 0 mm 1 mps 755 mmHg 36%
    03:00 +32°C° 0 mm 1 mps 755 mmHg 37%
    04:00 +32°C° 0 mm 1 mps 755 mmHg 37%
    05:00 +32°C° 0 mm 2 mps 755 mmHg 37%
    06:00 +32°C° 0 mm 2 mps 755 mmHg 36%
    07:00 +33°C° 0 mm 1 mps 756 mmHg 34%
    08:00 +34°C° 0 mm 1 mps 756 mmHg 32%
    09:00 +33°C° 0 mm 0 mps 756 mmHg 30%
    10:00 +34°C° 0 mm 0 mps 756 mmHg 28%
    11:00 +37°C° 0 mm 1 mps 756 mmHg 26%
    12:00 +37°C° 0 mm 1 mps 756 mmHg 24%
    13:00 +39°C° 0 mm 1 mps 755 mmHg 22%
    14:00 +39°C° 0 mm 1 mps 755 mmHg 20%
    15:00 +40°C° 0 mm 2 mps 754 mmHg 18%
    16:00 +39°C° 0 mm 2 mps 754 mmHg 20%
    17:00 +39°C° 0 mm 3 mps 754 mmHg 21%
    18:00 +38°C° 0 mm 3 mps 754 mmHg 23%
    19:00 +37°C° 0 mm 3 mps 754 mmHg 25%
    20:00 +37°C° 0 mm 3 mps 754 mmHg 26%
    21:00 +36°C° 0 mm 3 mps 754 mmHg 28%
    22:00 +36°C° 0 mm 3 mps 754 mmHg 28%
    23:00 +36°C° 0 mm 3 mps 754 mmHg 27%

    Day after tomorrow, 26 May, Sunday

    Time Temperature Precipitation Wind Pressure Humidity
    00:00 +36°C° 0 mm 3 mps 754 mmHg 27%
    01:00 +35°C° 0 mm 3 mps 754 mmHg 29%
    02:00 +34°C° 0 mm 3 mps 753 mmHg 31%
    03:00 +34°C° 0 mm 3 mps 753 mmHg 33%
    04:00 +34°C° 0 mm 2 mps 753 mmHg 32%
    05:00 +34°C° 0 mm 2 mps 753 mmHg 31%
    06:00 +34°C° 0 mm 1 mps 754 mmHg 30%
    07:00 +34°C° 0 mm 1 mps 754 mmHg 29%
    08:00 +35°C° 0 mm 1 mps 754 mmHg 28%
    09:00 +36°C° 0 mm 1 mps 755 mmHg 27%
    10:00 +36°C° 0 mm 1 mps 755 mmHg 26%
    11:00 +37°C° 0 mm 1 mps 755 mmHg 24%
    12:00 +39°C° 0 mm 1 mps 754 mmHg 23%
    13:00 +39°C° 0 mm 1 mps 754 mmHg 22%
    14:00 +39°C° 0 mm 2 mps 754 mmHg 20%
    15:00 +40°C° 0 mm 2 mps 753 mmHg 19%
    16:00 +39°C° 0 mm 2 mps 753 mmHg 20%
    17:00 +39°C° 0 mm 3 mps 753 mmHg 20%
    18:00 +38°C° 0 mm 3 mps 753 mmHg 21%
    19:00 +38°C° 0 mm 3 mps 753 mmHg 22%
    20:00 +37°C° 0 mm 3 mps 754 mmHg 24%
    21:00 +36°C° 0 mm 3 mps 754 mmHg 26%
    22:00 +36°C° 0 mm 3 mps 754 mmHg 27%
    23:00 +36°C° 0 mm 3 mps 754 mmHg 28%

    27 May, Monday

    Time Temperature Precipitation Wind Pressure Humidity
    00:00 +35°C° 0 mm 3 mps 753 mmHg 29%
    01:00 +35°C° 0 mm 2 mps 753 mmHg 31%
    02:00 +34°C° 0 mm 2 mps 753 mmHg 33%
    03:00 +33°C° 0 mm 1 mps 753 mmHg 35%
    04:00 +33°C° 0 mm 1 mps 753 mmHg 34%
    05:00 +33°C° 0 mm 1 mps 753 mmHg 34%
    06:00 +33°C° 0 mm 1 mps 753 mmHg 33%
    07:00 +34°C° 0 mm 1 mps 754 mmHg 31%
    08:00 +35°C° 0 mm 1 mps 754 mmHg 29%
    09:00 +36°C° 0 mm 1 mps 754 mmHg 27%
    10:00 +38°C° 0 mm 2 mps 754 mmHg 25%
    11:00 +39°C° 0 mm 2 mps 754 mmHg 23%
    12:00 +40°C° 0 mm 3 mps 754 mmHg 21%
    13:00 +40°C° 0 mm 3 mps 754 mmHg 21%
    14:00 +40°C° 0 mm 3 mps 753 mmHg 21%
    15:00 +42°C° 0 mm 3 mps 753 mmHg 20%
    16:00 +40°C° 0 mm 3 mps 753 mmHg 23%
    17:00 +38°C° 0 mm 3 mps 753 mmHg 26%
    18:00 +37°C° 0 mm 3 mps 753 mmHg 28%
    19:00 +37°C° 0 mm 3 mps 753 mmHg 29%
    20:00 +37°C° 0 mm 2 mps 754 mmHg 29%
    21:00 +36°C° 0 mm 2 mps 754 mmHg 29%
    22:00 +35°C° 0 mm 1 mps 754 mmHg 29%
    23:00 +34°C° 0 mm 1 mps 753 mmHg 28%

    28 May, Tuesday

    Time Temperature Precipitation Wind Pressure Humidity
    00:00 +32°C° 0 mm 0 mps 753 mmHg 28%
    01:00 +32°C° 0 mm 0 mps 753 mmHg 28%
    02:00 +33°C° 0 mm 1 mps 752 mmHg 28%
    03:00 +33°C° 0 mm 1 mps 752 mmHg 27%
    04:00 +34°C° 0 mm 1 mps 753 mmHg 27%
    05:00 +34°C° 0 mm 1 mps 753 mmHg 27%
    06:00 +32°C° 0 mm 0 mps 754 mmHg 26%
    07:00 +33°C° 0 mm 0 mps 754 mmHg 25%
    08:00 +34°C° 0 mm 0 mps 754 mmHg 23%
    09:00 +36°C° 0 mm 0 mps 754 mmHg 21%
    10:00 +36°C° 0 mm 0 mps 754 mmHg 20%
    11:00 +40°C° 0 mm 1 mps 754 mmHg 20%
    12:00 +41°C° 0 mm 1 mps 753 mmHg 19%
    13:00 +41°C° 0 mm 2 mps 753 mmHg 18%
    14:00 +42°C° 0 mm 2 mps 753 mmHg 17%
    15:00 +42°C° 0 mm 2 mps 752 mmHg 16%
    16:00 +41°C° 0 mm 2 mps 752 mmHg 17%
    17:00 +41°C° 0 mm 2 mps 752 mmHg 18%
    18:00 +40°C° 0 mm 2 mps 752 mmHg 19%
    19:00 +40°C° 0 mm 2 mps 753 mmHg 19%
    20:00 +39°C° 0 mm 2 mps 753 mmHg 19%
    21:00 +39°C° 0 mm 2 mps 753 mmHg 18%
    22:00 +38°C° 0 mm 2 mps 753 mmHg 20%
    23:00 +38°C° 0 mm 3 mps 753 mmHg 21%

    29 May, Wednesday

    Time Temperature Precipitation Wind Pressure Humidity
    00:00 +38°C° 0 mm 3 mps 752 mmHg 22%
    01:00 +37°C° 0 mm 3 mps 752 mmHg 24%
    02:00 +36°C° 0 mm 2 mps 752 mmHg 26%
    03:00 +34°C° 0 mm 1 mps 752 mmHg 28%
    04:00 +34°C° 0 mm 1 mps 752 mmHg 26%
    05:00 +34°C° 0 mm 1 mps 753 mmHg 25%
    06:00 +33°C° 0 mm 0 mps 753 mmHg 24%
    07:00 +36°C° 0 mm 1 mps 753 mmHg 23%
    08:00 +37°C° 0 mm 1 mps 753 mmHg 21%
    09:00 +39°C° 0 mm 1 mps 754 mmHg 20%
    10:00 +40°C° 0 mm 2 mps 753 mmHg 19%
    11:00 +41°C° 0 mm 2 mps 753 mmHg 18%
    12:00 +41°C° 0 mm 2 mps 753 mmHg 17%
    13:00 +42°C° 0 mm 2 mps 752 mmHg 17%
    14:00 +42°C° 0 mm 2 mps 752 mmHg 16%
    15:00 +42°C° 0 mm 1 mps 752 mmHg 16%
    16:00 +42°C° 0 mm 2 mps 752 mmHg 17%
    17:00 +42°C° 0 mm 3 mps 752 mmHg 18%
    18:00 +41°C° 0 mm 4 mps 752 mmHg 20%
    19:00 +40°C° 0 mm 4 mps 752 mmHg 20%
    20:00 +39°C° 0 mm 3 mps 752 mmHg 21%
    21:00 +38°C° 0 mm 3 mps 753 mmHg 22%
    22:00 +38°C° 0 mm 3 mps 752 mmHg 23%
    23:00 +37°C° 0 mm 3 mps 752 mmHg 25%
    Show more